When you browse on this site, cookies collect data to enhance your experience and personalize the content and advertising you see.
Visit our Privacy Policy to learn more. By continuing to use the site, you agree to this use of cookies and data.

Hourly Weather Brisbane

Today, 12 July, Sunday

Time Temperature Precipitation Wind Pressure Humidity
00:00 +16°C° 0 mm 2 mps 761 mmHg 86%
01:00 +16°C° 0 mm 2 mps 760 mmHg 87%
02:00 +15°C° 0 mm 1 mps 760 mmHg 88%
03:00 +15°C° 0 mm 1 mps 760 mmHg 89%
04:00 +15°C° 0 mm 1 mps 760 mmHg 91%
05:00 +15°C° 0 mm 1 mps 760 mmHg 91%
06:00 +15°C° 0 mm 1 mps 760 mmHg 91%
07:00 +14°C° 0 mm 1 mps 760 mmHg 92%
08:00 +16°C° 0 mm 1 mps 760 mmHg 83%
09:00 +20°C° 0 mm 1 mps 760 mmHg 75%
10:00 +22°C° 0 mm 1 mps 761 mmHg 66%
11:00 +23°C° 0 mm 1 mps 760 mmHg 62%
12:00 +24°C° 0 mm 1 mps 759 mmHg 57%
13:00 +25°C° 0 mm 1 mps 759 mmHg 52%
14:00 +24°C° 0.2 mm 1 mps 758 mmHg 59%
15:00 +23°C° 0.2 mm 1 mps 758 mmHg 66%
16:00 +21°C° 0.2 mm 1 mps 758 mmHg 73%
17:00 +21°C° 0.3 mm 1 mps 759 mmHg 76%
18:00 +20°C° 0.3 mm 1 mps 759 mmHg 80%
19:00 +19°C° 0.3 mm 1 mps 759 mmHg 83%
20:00 +19°C° 0.4 mm 1 mps 760 mmHg 83%
21:00 +19°C° 0.4 mm 1 mps 760 mmHg 83%
22:00 +18°C° 0.4 mm 2 mps 760 mmHg 84%
23:00 +18°C° 0.1 mm 1 mps 760 mmHg 84%

Tomorrow, 13 July, Monday

Time Temperature Precipitation Wind Pressure Humidity
00:00 +18°C° 0.1 mm 1 mps 760 mmHg 84%
01:00 +18°C° 0.1 mm 1 mps 760 mmHg 85%
02:00 +18°C° 0.1 mm 1 mps 760 mmHg 84%
03:00 +16°C° 0.1 mm 1 mps 760 mmHg 84%
04:00 +16°C° 0.1 mm 1 mps 760 mmHg 84%
05:00 +16°C° 0.2 mm 1 mps 760 mmHg 83%
06:00 +16°C° 0.2 mm 1 mps 761 mmHg 83%
07:00 +15°C° 0.2 mm 1 mps 761 mmHg 83%
08:00 +16°C° 0 mm 2 mps 761 mmHg 76%
09:00 +17°C° 0 mm 2 mps 761 mmHg 69%
10:00 +18°C° 0 mm 3 mps 761 mmHg 62%
11:00 +19°C° 0.1 mm 3 mps 761 mmHg 54%
12:00 +20°C° 0.1 mm 3 mps 760 mmHg 47%
13:00 +21°C° 0.1 mm 4 mps 760 mmHg 39%
14:00 +20°C° 0 mm 4 mps 760 mmHg 38%
15:00 +20°C° 0 mm 4 mps 760 mmHg 37%
16:00 +20°C° 0 mm 4 mps 760 mmHg 37%
17:00 +18°C° 0 mm 4 mps 760 mmHg 41%
18:00 +17°C° 0 mm 4 mps 761 mmHg 45%
19:00 +14°C° 0 mm 4 mps 761 mmHg 49%
20:00 +13°C° 0 mm 4 mps 762 mmHg 52%
21:00 +12°C° 0 mm 4 mps 762 mmHg 54%
22:00 +12°C° 0 mm 4 mps 762 mmHg 56%
23:00 +11°C° 0 mm 4 mps 762 mmHg 58%

Day after tomorrow, 14 July, Tuesday

Time Temperature Precipitation Wind Pressure Humidity
00:00 +11°C° 0 mm 4 mps 762 mmHg 60%
01:00 +10°C° 0 mm 4 mps 762 mmHg 62%
02:00 +10°C° 0 mm 4 mps 761 mmHg 64%
03:00 +9°C° 0 mm 5 mps 761 mmHg 67%
04:00 +8°C° 0 mm 5 mps 761 mmHg 70%
05:00 +8°C° 0 mm 5 mps 761 mmHg 71%
06:00 +8°C° 0 mm 5 mps 762 mmHg 72%
07:00 +8°C° 0 mm 5 mps 762 mmHg 73%
08:00 +10°C° 0 mm 5 mps 762 mmHg 65%
09:00 +12°C° 0 mm 5 mps 762 mmHg 57%
10:00 +14°C° 0 mm 6 mps 762 mmHg 48%
11:00 +15°C° 0 mm 6 mps 761 mmHg 43%
12:00 +17°C° 0 mm 6 mps 760 mmHg 38%
13:00 +19°C° 0 mm 6 mps 759 mmHg 34%
14:00 +19°C° 0 mm 5 mps 759 mmHg 36%
15:00 +19°C° 0 mm 5 mps 759 mmHg 39%
16:00 +17°C° 0 mm 5 mps 759 mmHg 42%
17:00 +16°C° 0 mm 5 mps 760 mmHg 47%
18:00 +15°C° 0 mm 5 mps 760 mmHg 51%
19:00 +14°C° 0 mm 5 mps 760 mmHg 55%
20:00 +14°C° 0 mm 5 mps 761 mmHg 59%
21:00 +13°C° 0 mm 5 mps 761 mmHg 63%
22:00 +13°C° 0 mm 4 mps 762 mmHg 66%
23:00 +12°C° 0 mm 4 mps 761 mmHg 69%

15 July, Wednesday

Time Temperature Precipitation Wind Pressure Humidity
00:00 +11°C° 0 mm 3 mps 761 mmHg 73%
01:00 +11°C° 0 mm 3 mps 761 mmHg 76%
02:00 +10°C° 0 mm 3 mps 761 mmHg 77%
03:00 +10°C° 0 mm 3 mps 761 mmHg 79%
04:00 +10°C° 0 mm 3 mps 761 mmHg 81%
05:00 +9°C° 0 mm 3 mps 761 mmHg 82%
06:00 +9°C° 0 mm 2 mps 761 mmHg 82%
07:00 +9°C° 0 mm 2 mps 761 mmHg 83%
08:00 +11°C° 0 mm 3 mps 761 mmHg 73%
09:00 +13°C° 0 mm 3 mps 761 mmHg 63%
10:00 +16°C° 0 mm 3 mps 761 mmHg 53%
11:00 +18°C° 0 mm 3 mps 760 mmHg 48%
12:00 +19°C° 0 mm 3 mps 759 mmHg 43%
13:00 +20°C° 0 mm 3 mps 759 mmHg 38%
14:00 +20°C° 0 mm 3 mps 758 mmHg 38%
15:00 +20°C° 0 mm 3 mps 758 mmHg 38%
16:00 +20°C° 0 mm 3 mps 758 mmHg 39%
17:00 +18°C° 0 mm 3 mps 759 mmHg 43%
18:00 +17°C° 0 mm 4 mps 759 mmHg 47%
19:00 +14°C° 0 mm 5 mps 760 mmHg 51%
20:00 +14°C° 0 mm 5 mps 760 mmHg 52%
21:00 +13°C° 0 mm 4 mps 760 mmHg 54%
22:00 +12°C° 0 mm 4 mps 760 mmHg 56%
23:00 +11°C° 0 mm 4 mps 760 mmHg 58%

16 July, Thursday

Time Temperature Precipitation Wind Pressure Humidity
00:00 +11°C° 0 mm 3 mps 760 mmHg 60%
01:00 +10°C° 0 mm 3 mps 759 mmHg 61%
02:00 +10°C° 0 mm 3 mps 759 mmHg 62%
03:00 +9°C° 0 mm 3 mps 759 mmHg 63%
04:00 +9°C° 0 mm 3 mps 759 mmHg 64%
05:00 +9°C° 0 mm 3 mps 760 mmHg 65%
06:00 +9°C° 0 mm 3 mps 760 mmHg 66%
07:00 +9°C° 0 mm 3 mps 761 mmHg 68%
08:00 +11°C° 0 mm 3 mps 760 mmHg 61%
09:00 +13°C° 0 mm 3 mps 760 mmHg 55%
10:00 +16°C° 0 mm 3 mps 760 mmHg 49%
11:00 +18°C° 0 mm 3 mps 760 mmHg 46%
12:00 +19°C° 0 mm 4 mps 759 mmHg 44%
13:00 +21°C° 0 mm 4 mps 759 mmHg 41%
14:00 +21°C° 0 mm 3 mps 759 mmHg 43%
15:00 +20°C° 0 mm 3 mps 759 mmHg 44%
16:00 +20°C° 0 mm 3 mps 759 mmHg 46%
17:00 +19°C° 0 mm 3 mps 759 mmHg 50%
18:00 +17°C° 0 mm 3 mps 760 mmHg 55%
19:00 +16°C° 0 mm 3 mps 760 mmHg 59%
20:00 +14°C° 0 mm 3 mps 761 mmHg 61%
21:00 +13°C° 0 mm 3 mps 761 mmHg 62%
22:00 +13°C° 0 mm 3 mps 761 mmHg 64%
23:00 +12°C° 0 mm 3 mps 761 mmHg 65%

17 July, Friday

Time Temperature Precipitation Wind Pressure Humidity
00:00 +12°C° 0 mm 3 mps 761 mmHg 66%
01:00 +11°C° 0 mm 3 mps 761 mmHg 67%
02:00 +11°C° 0 mm 3 mps 761 mmHg 68%
03:00 +11°C° 0 mm 3 mps 761 mmHg 69%
04:00 +10°C° 0 mm 3 mps 761 mmHg 71%
05:00 +10°C° 0 mm 3 mps 762 mmHg 71%
06:00 +10°C° 0 mm 3 mps 762 mmHg 71%
07:00 +10°C° 0 mm 3 mps 763 mmHg 71%
08:00 +12°C° 0 mm 3 mps 763 mmHg 65%
09:00 +14°C° 0 mm 3 mps 763 mmHg 59%
10:00 +18°C° 0 mm 3 mps 763 mmHg 53%
11:00 +18°C° 0 mm 3 mps 762 mmHg 51%
12:00 +19°C° 0 mm 4 mps 762 mmHg 49%
13:00 +20°C° 0 mm 4 mps 762 mmHg 46%
14:00 +20°C° 0 mm 4 mps 762 mmHg 48%
15:00 +20°C° 0 mm 4 mps 762 mmHg 49%
16:00 +19°C° 0 mm 3 mps 762 mmHg 50%
17:00 +18°C° 0 mm 3 mps 762 mmHg 54%
18:00 +17°C° 0 mm 3 mps 763 mmHg 59%
19:00 +14°C° 0 mm 3 mps 763 mmHg 63%
20:00 +14°C° 0 mm 3 mps 764 mmHg 67%
21:00 +14°C° 0 mm 2 mps 764 mmHg 70%
22:00 +13°C° 0 mm 2 mps 764 mmHg 73%
23:00 +13°C° 0 mm 2 mps 764 mmHg 75%
Show more